Regional Weather Roundup
Issued by NWS Upton, NY

Current Version | Previous Version | Graphics & Text | Print | Product List | Glossary Off
Versions: 1 2 3 4 5 6 7 8 9 10 11 12 13 14 15 16 17 18 19 20 21 22 23 24 25 26 27
000 ASUS41 KOKX 231708 RWROKX REGIONAL WEATHER ROUNDUP NATIONAL WEATHER SERVICE NEW YORK NY 1200 PM EST THU FEB 23 2017 NOTE: "FAIR" INDICATES FEW OR NO CLOUDS BELOW 12,000 FEET WITH NO SIGNIFICANT WEATHER AND/OR OBSTRUCTIONS TO VISIBILITY. NYZ071-072-176-178-NJZ106-104-231800- NEW YORK CITY METRO AREA CITY SKY/WX TMP DP RH WIND PRES REMARKS Central Park CLOUDY 53 48 83 W9 29.90F Wall St Helipt NOT AVBL LaGuardia APRT CLOUDY 56 49 77 SW12 29.88F Kennedy INTL CLOUDY 49 47 93 S7 29.90S FOG Breezy Point N/A 45 N/A N/A S3 N/A Newark/Liberty CLOUDY 54 50 86 SW12 29.87F FOG Teterboro CLOUDY 55 49 80 SW9 29.86F $$ NYZ177-179-078>081-231800- LONG ISLAND NEW YORK CITY SKY/WX TMP DP RH WIND PRES REMARKS Jones Beach N/A 45 N/A N/A S7 N/A Matinecock PT NOT AVBL Farmingdale CLOUDY 50 47 89 S7 29.88F MacArthur/ISP CLOUDY 51 47 86 S7 29.87F Shirley CLOUDY 49 47 93 S8 29.88F Westhampton CLOUDY 50 46 86 SW7 29.89F Southampton N/A 46 46 100 SW3 29.86F Bridgehampton NOT AVBL East Hampton CLOUDY 49 47 90 SW7 29.88F Montauk N/A 50 46 86 S9 29.90F $$ NYZ052-065-067-231800- HUDSON VALLEY CITY SKY/WX TMP DP RH WIND PRES REMARKS White Plains MOSUNNY 55 46 71 S8 29.85F HAZE Newburgh SUNNY 64 52 63 CALM 29.83F Montgomery SUNNY 64 50 60 SW10 29.80F Poughkeepsie SUNNY 61 45 55 SW7 29.81F Albany MOSUNNY 60 42 51 S20 29.75F $$ NJZ001-105-106-008-010-013-015-019>022-104-231800- NEW JERSEY CITY SKY/WX TMP DP RH WIND PRES REMARKS Newark/Liberty CLOUDY 54 50 86 SW12 29.87F FOG Teterboro CLOUDY 55 49 80 SW9 29.86F Caldwell MOSUNNY 55 48 77 SW9 29.86F Somerville CLOUDY 55 49 80 CALM 29.86F Linden NOT AVBL Sussex SUNNY 63 50 62 SW9 29.82F Andover N/A 60 48 64 SW12 29.85F Trenton CLOUDY 58 53 84 SW7 29.88F Millville SUNNY 68 55 63 W10 29.89F Atlantic City SUNNY 69 52 54 W9 29.88F Wrightstown MOSUNNY 62 54 77 W9 29.85F Toms River SUNNY 67 54 63 W12 29.88F Belmar MOSUNNY 61 53 75 SW10 29.88F $$ PAZ047>061-062-071-231800- EASTERN PENNSYLVANIA CITY SKY/WX TMP DP RH WIND PRES REMARKS Philadelphia MOSUNNY 59 53 80 SW7 29.89F Allentown CLOUDY 55 47 74 CALM 29.88F HAZE Scranton PTSUNNY 63 49 60 SW10 29.82F $$ CTZ002-004>006-009-010-012-RIZ004-006-007-MAZ004-011-015-231800- SOUTHERN NEW ENGLAND IN CT CITY SKY/WX TMP DP RH WIND PRES REMARKS Bradley INTL MOSUNNY 62 44 51 S10 29.82F Hartford SUNNY 61 48 62 SW10G16 29.83F Danbury SUNNY 60 49 66 SW10 29.84F Wtrbury/Oxford MOSUNNY 57 48 72 S9 29.85F Bridgeport CLOUDY 46 42 86 SW5 29.87F FOG Meriden MOSUNNY 56 46 69 S10 29.85F New Haven CLOUDY 45 42 89 SW3 29.87F FOG Chester CLOUDY 52 50 93 SW8G14 29.86F FOG Groton FOG 48 45 89 S7 29.87F VSB 1 Wilimantic SUNNY 63 48 58 SW9G20 29.84F IN RI CITY SKY/WX TMP DP RH WIND PRES REMARKS Providence MOSUNNY 65 46 50 SW13 29.84F Block Island FOG 48 46 93 SW15 29.89F VSB 1/4 Westerly CLOUDY 51 43 74 SW7 29.88F IN MA CITY SKY/WX TMP DP RH WIND PRES REMARKS Boston SUNNY 63 46 54 S12 29.80F Worcester SUNNY 61 40 45 SW16G22 29.81F Westfield SUNNY 59 42 53 S9 29.80F Provincetown SUNNY 54 45 71 S17G23 29.85F Nantucket FOG 47 43 86 SW15 29.91F VSB 1 $$ ANZ330-335-338-340-345-350-353-355-231800- COASTAL MARINE OBSERVATIONS STATION/POSITION TIME SKY/WX TEMP WIND PRES VSBY WAVE AIR SEA DIR/SP/G HT/PER (UTC) (F) (DEG/KT/KT) (MB) (MI) (FT/S) NY HARB ENTRANCE 1550 43 43 170/ 6/ 6 1012.5 3/11 20 S FIRE ISLAND 1650 46 44 180/ 8/ 10 1011.9 3/10 GREAT SOUTH BAY NOT AVBL 23 SSW MONTAUK P 1550 47 45 1013.6 3/11 15 E BARNEGAT LI 1630 44 N/A 4/10 HUDSON CANYON 1550 49 1013.9 3/10 KINGS POINT 1642 49 38 1011.4 EXECUTION ROCKS NOT AVBL CENTRAL LI SOUND 1615 41 150/ 2/ 2 N/A 0 EASTERN LI SOUND NOT AVBL ROBBINS REEF 1648 47 190/ 7/ 10 1012.0 $$ >>>>>>>>>>>>>>>>>>>>>>>>>>>> KEY <<<<<<<<<<<<<<<<<<<<<<<<<<< > < > SKY/WX - Sky Condition/Present Weather < > TMP - Temperature in Fahrenheit < > DP - Dew Point in Fahrenheit < > RH - Relative Humidity in Percent < > WIND - Direction (from) and Speed in MPH < > PRES - Mean Sea Level Pressure (inches of Hg) < > WCI - Wind Chill Index < > VSB - VISIBILITY IN MILES < > HX - HEAT INDEX < > TC - TEMPERATURE IN CELSIUS < > VRB - VARIABLE WIND DIRECTION < > < >>>>>>>>>>>>>>>>>>>>>>>>>>>> KEY <<<<<<<<<<<<<<<<<<<<<<<<<<<

USA.gov is the U.S. government's official web portal to all federal, state and local government web resources and services.